Time,TemperatureF,DewpointF,PressureIn,WindDirection,WindDirectionDegrees,WindSpeedMPH,WindSpeedGustMPH,Humidity,HourlyPrecipIn,Conditions,Clouds,dailyrainin,SoftwareType,DateUTC
2014-02-03 00:13:00,77.0,73.0,30.02,ESE,102,8.0,14.0,88,0.00,,,0.00,,2014-02-03 05:13:00,
2014-02-03 00:22:00,77.0,73.0,30.01,SE,126,8.0,15.0,88,0.00,,,0.00,,2014-02-03 05:22:00,
2014-02-03 00:43:00,77.0,73.0,30.01,ESE,108,10.0,15.0,88,0.00,,,0.00,,2014-02-03 05:43:00,
2014-02-03 00:53:00,77.0,73.0,30.01,ESE,115,11.0,19.0,88,0.00,,,0.00,,2014-02-03 05:53:00,
2014-02-03 01:22:00,77.0,73.0,30.01,SE,136,6.0,20.0,87,0.00,,,0.00,,2014-02-03 06:22:00,
2014-02-03 01:42:00,77.0,73.0,30.01,ESE,121,8.0,16.0,88,0.00,,,0.00,,2014-02-03 06:42:00,
2014-02-03 01:52:00,77.0,73.0,30.00,ESE,110,11.0,18.0,88,0.00,,,0.00,,2014-02-03 06:52:00,
2014-02-03 02:22:00,77.0,74.0,29.99,ESE,105,8.0,19.0,89,0.00,,,0.00,,2014-02-03 07:22:00,
2014-02-03 02:42:00,77.0,74.0,29.99,ESE,111,5.0,21.0,89,0.00,,,0.00,,2014-02-03 07:42:00,
2014-02-03 02:52:00,77.0,74.0,29.98,SE,136,10.0,19.0,89,0.00,,,0.00,,2014-02-03 07:52:00,
2014-02-03 03:27:00,77.0,74.0,29.98,SE,124,5.0,19.0,89,0.00,,,0.00,,2014-02-03 08:27:00,
2014-02-03 03:46:00,77.0,74.0,29.98,SE,128,3.0,16.0,89,0.00,,,0.00,,2014-02-03 08:46:00,
2014-02-03 03:58:00,77.0,74.0,29.98,ESE,117,3.0,17.0,90,0.00,,,0.00,,2014-02-03 08:58:00,
2014-02-03 04:12:00,77.0,74.0,29.98,ESE,110,5.0,15.0,90,0.00,,,0.00,,2014-02-03 09:12:00,
2014-02-03 04:22:00,77.0,74.0,29.98,SE,139,5.0,15.0,90,0.00,,,0.00,,2014-02-03 09:22:00,
2014-02-03 04:43:00,77.0,74.0,29.98,SE,135,6.0,19.0,90,0.00,,,0.00,,2014-02-03 09:43:00,
2014-02-03 04:54:00,77.0,74.0,29.99,ESE,117,4.0,18.0,90,0.00,,,0.00,,2014-02-03 09:54:00,
2014-02-03 05:13:00,77.0,74.0,29.99,ESE,106,7.0,18.0,90,0.00,,,0.00,,2014-02-03 10:13:00,
2014-02-03 05:23:00,77.0,74.0,29.99,SE,133,8.0,15.0,90,0.00,,,0.00,,2014-02-03 10:23:00,
2014-02-03 05:52:00,77.0,74.0,29.99,ESE,114,7.0,16.0,90,0.00,,,0.00,,2014-02-03 10:52:00,
2014-02-03 06:12:00,77.0,74.0,29.99,SE,127,5.0,17.0,90,0.00,,,0.00,,2014-02-03 11:12:00,
2014-02-03 06:22:00,76.0,73.0,30.00,SE,128,5.0,12.0,89,0.00,,,0.00,,2014-02-03 11:22:00,
2014-02-03 06:42:00,77.0,74.0,30.00,SE,143,4.0,12.0,89,0.00,,,0.00,,2014-02-03 11:42:00,
2014-02-03 06:52:00,77.0,74.0,30.00,SE,133,5.0,12.0,90,0.00,,,0.00,,2014-02-03 11:52:00,
2014-02-03 07:12:00,77.0,74.0,30.01,SE,141,3.0,11.0,90,0.00,,,0.00,,2014-02-03 12:12:00,
2014-02-03 07:22:00,76.0,73.0,30.01,SE,137,8.0,17.0,91,0.00,,,0.00,,2014-02-03 12:22:00,
2014-02-03 07:42:00,76.0,73.0,30.01,SE,140,7.0,13.0,91,0.00,,,0.00,,2014-02-03 12:42:00,
2014-02-03 07:52:00,77.0,74.0,30.02,SE,146,3.0,14.0,91,0.00,,,0.00,,2014-02-03 12:52:00,
2014-02-03 08:12:00,77.0,74.0,30.02,ESE,103,4.0,11.0,91,0.00,,,0.00,,2014-02-03 13:12:00,
2014-02-03 08:22:00,77.0,74.0,30.02,ESE,121,8.0,15.0,90,0.00,,,0.00,,2014-02-03 13:22:00,
2014-02-03 08:42:00,77.0,74.0,30.02,SE,130,5.0,14.0,90,0.00,,,0.00,,2014-02-03 13:42:00,
2014-02-03 08:52:00,78.0,74.0,30.03,ESE,119,8.0,15.0,89,0.00,,,0.00,,2014-02-03 13:52:00,
2014-02-03 09:12:00,78.0,74.0,30.03,ESE,115,9.0,16.0,89,0.00,,,0.00,,2014-02-03 14:12:00,
2014-02-03 09:22:00,78.0,74.0,30.04,ESE,111,10.0,15.0,88,0.00,,,0.00,,2014-02-03 14:22:00,
2014-02-03 09:42:00,78.0,74.0,30.04,ESE,113,11.0,17.0,88,0.00,,,0.00,,2014-02-03 14:42:00,
2014-02-03 09:52:00,79.0,75.0,30.05,SE,139,9.0,15.0,87,0.00,,,0.00,,2014-02-03 14:52:00,
2014-02-03 10:11:00,79.0,75.0,30.05,ESE,109,10.0,15.0,87,0.00,,,0.00,,2014-02-03 15:11:00,
2014-02-03 10:22:00,79.0,75.0,30.06,SE,126,8.0,14.0,87,0.00,,,0.00,,2014-02-03 15:22:00,
2014-02-03 10:43:00,79.0,74.0,30.06,East,101,9.0,15.0,86,0.00,,,0.00,,2014-02-03 15:43:00,
2014-02-03 10:54:00,79.0,74.0,30.06,ESE,112,8.0,14.0,86,0.00,,,0.00,,2014-02-03 15:54:00,
2014-02-03 11:13:00,79.0,74.0,30.05,SE,126,10.0,15.0,86,0.00,,,0.00,,2014-02-03 16:13:00,
2014-02-03 11:23:00,80.0,75.0,30.05,ESE,109,8.0,14.0,86,0.00,,,0.00,,2014-02-03 16:23:00,
2014-02-03 11:53:00,80.0,75.0,30.04,ESE,113,8.0,15.0,86,0.00,,,0.00,,2014-02-03 16:53:00,
2014-02-03 12:22:00,81.0,76.0,30.04,SE,128,5.0,12.0,85,0.00,,,0.00,,2014-02-03 17:22:00,
2014-02-03 12:42:00,81.0,76.0,30.03,ESE,116,5.0,12.0,84,0.00,,,0.00,,2014-02-03 17:42:00,
2014-02-03 12:53:00,81.0,76.0,30.03,East,79,0.0,9.0,84,0.00,,,0.00,,2014-02-03 17:53:00,
2014-02-03 13:13:00,81.0,76.0,30.02,ESE,113,3.0,12.0,84,0.00,,,0.00,,2014-02-03 18:13:00,
2014-02-03 13:22:00,81.0,76.0,30.01,SE,138,2.0,10.0,84,0.00,,,0.00,,2014-02-03 18:22:00,
2014-02-03 13:43:00,81.0,76.0,30.01,East,99,0.0,9.0,84,0.00,,,0.00,,2014-02-03 18:43:00,
2014-02-03 13:52:00,80.0,75.0,30.00,East,90,3.0,9.0,85,0.00,,,0.00,,2014-02-03 18:52:00,
2014-02-03 14:12:00,80.0,75.0,30.00,ESE,107,4.0,9.0,85,0.00,,,0.00,,2014-02-03 19:12:00,
2014-02-03 14:22:00,80.0,75.0,30.00,East,85,0.0,11.0,85,0.00,,,0.00,,2014-02-03 19:22:00,
2014-02-03 14:42:00,80.0,75.0,29.99,ESE,116,3.0,9.0,85,0.00,,,0.00,,2014-02-03 19:42:00,
2014-02-03 14:52:00,79.0,74.0,29.99,East,98,9.0,12.0,86,0.00,,,0.00,,2014-02-03 19:52:00,
2014-02-03 15:11:00,79.0,74.0,29.99,ESE,107,6.0,11.0,86,0.00,,,0.00,,2014-02-03 20:11:00,
2014-02-03 15:22:00,79.0,74.0,29.98,East,96,7.0,12.0,86,0.00,,,0.00,,2014-02-03 20:22:00,
2014-02-03 15:42:00,79.0,74.0,29.98,East,99,5.0,9.0,86,0.00,,,0.00,,2014-02-03 20:42:00,
2014-02-03 15:52:00,79.0,74.0,29.97,ESE,109,8.0,12.0,86,0.00,,,0.00,,2014-02-03 20:52:00,
2014-02-03 16:12:00,79.0,74.0,29.98,East,95,6.0,12.0,86,0.00,,,0.00,,2014-02-03 21:12:00,
2014-02-03 16:22:00,79.0,75.0,29.98,East,97,4.0,11.0,87,0.00,,,0.00,,2014-02-03 21:22:00,
2014-02-03 16:54:00,79.0,75.0,29.98,SE,131,7.0,13.0,87,0.00,,,0.00,,2014-02-03 21:54:00,
2014-02-03 17:12:00,79.0,75.0,29.98,East,101,6.0,12.0,87,0.00,,,0.00,,2014-02-03 22:12:00,
2014-02-03 17:23:00,79.0,75.0,29.98,ESE,121,2.0,11.0,88,0.00,,,0.00,,2014-02-03 22:23:00,
2014-02-03 17:53:00,78.0,74.0,29.98,SE,124,3.0,14.0,88,0.00,,,0.00,,2014-02-03 22:53:00,
2014-02-03 18:12:00,78.0,74.0,29.98,SE,129,0.0,13.0,88,0.00,,,0.00,,2014-02-03 23:12:00,
2014-02-03 18:22:00,78.0,74.0,29.98,ESE,110,0.0,13.0,89,0.00,,,0.00,,2014-02-03 23:22:00,
2014-02-03 18:42:00,78.0,74.0,29.98,East,94,6.0,11.0,89,0.00,,,0.00,,2014-02-03 23:42:00,
2014-02-03 18:53:00,78.0,75.0,30.00,ESE,107,0.0,9.0,90,0.00,,,0.00,,2014-02-03 23:53:00,
2014-02-03 19:12:00,77.0,74.0,30.00,East,86,3.0,9.0,90,0.00,,,0.00,,2014-02-04 00:12:00,
2014-02-03 19:22:00,77.0,74.0,30.00,East,86,5.0,9.0,90,0.00,,,0.00,,2014-02-04 00:22:00,
2014-02-03 19:42:00,77.0,74.0,30.00,ESE,103,6.0,11.0,90,0.00,,,0.00,,2014-02-04 00:42:00,
2014-02-03 19:52:00,77.0,74.0,30.00,ESE,123,7.0,12.0,90,0.00,,,0.00,,2014-02-04 00:52:00,
2014-02-03 20:11:00,77.0,74.0,30.00,East,92,1.0,11.0,90,0.00,,,0.00,,2014-02-04 01:11:00,
2014-02-03 20:22:00,77.0,74.0,30.01,ESE,115,2.0,11.0,90,0.00,,,0.00,,2014-02-04 01:22:00,
2014-02-03 20:42:00,77.0,74.0,30.01,ESE,103,4.0,11.0,90,0.00,,,0.00,,2014-02-04 01:42:00,
2014-02-03 20:52:00,77.0,74.0,30.02,ENE,72,0.0,7.0,90,0.00,,,0.00,,2014-02-04 01:52:00,
2014-02-03 21:11:00,77.0,74.0,30.01,East,97,0.0,7.0,91,0.00,,,0.00,,2014-02-04 02:11:00,
2014-02-03 21:22:00,77.0,74.0,30.02,ESE,104,0.0,7.0,90,0.00,,,0.00,,2014-02-04 02:22:00,
2014-02-03 21:42:00,77.0,74.0,30.03,East,98,3.0,7.0,91,0.00,,,0.00,,2014-02-04 02:42:00,
2014-02-03 21:52:00,77.0,74.0,30.03,ENE,73,5.0,10.0,90,0.00,,,0.00,,2014-02-04 02:52:00,
2014-02-03 22:12:00,77.0,74.0,30.03,ENE,66,0.0,7.0,90,0.00,,,0.00,,2014-02-04 03:12:00,
2014-02-03 22:22:00,77.0,74.0,30.03,ENE,63,2.0,6.0,90,0.00,,,0.00,,2014-02-04 03:22:00,
2014-02-03 22:43:00,77.0,74.0,30.04,East,83,3.0,7.0,91,0.00,,,0.00,,2014-02-04 03:43:00,
2014-02-03 22:53:00,77.0,74.0,30.04,ENE,74,4.0,7.0,91,0.00,,,0.00,,2014-02-04 03:53:00,
2014-02-03 23:13:00,77.0,74.0,30.04,ENE,71,1.0,7.0,91,0.00,,,0.00,,2014-02-04 04:13:00,
2014-02-03 23:23:00,77.0,74.0,30.04,ENE,63,0.0,8.0,91,0.00,,,0.00,,2014-02-04 04:23:00,
2014-02-03 23:43:00,77.0,74.0,30.03,ENE,59,0.0,7.0,91,0.00,,,0.00,,2014-02-04 04:43:00,
2014-02-03 23:53:00,77.0,74.0,30.03,ENE,67,0.0,7.0,91,0.00,,,0.00,,2014-02-04 04:53:00,